Year,Month,Day,Hour,Minute,Value (Times are PST for temperature in C)
2012,06,09,00,00,8.90
2012,06,09,00,01,8.90
2012,06,09,00,02,8.90
2012,06,09,00,03,8.90
2012,06,09,00,04,8.90
2012,06,09,00,05,8.90
2012,06,09,00,06,8.90
2012,06,09,00,07,8.90
2012,06,09,00,08,8.90
2012,06,09,00,09,8.90
2012,06,09,00,10,8.80
2012,06,09,00,11,8.80
2012,06,09,00,12,8.80
2012,06,09,00,13,8.80
2012,06,09,00,14,8.80
2012,06,09,00,15,8.80
2012,06,09,00,16,8.80
2012,06,09,00,17,8.80
2012,06,09,00,18,8.80
2012,06,09,00,19,8.80
2012,06,09,00,20,8.80
2012,06,09,00,21,8.80
2012,06,09,00,22,8.80
2012,06,09,00,23,8.80
2012,06,09,00,24,8.80
2012,06,09,00,25,8.80
2012,06,09,00,26,8.90
2012,06,09,00,27,8.90
2012,06,09,00,28,8.90
2012,06,09,00,29,8.90
2012,06,09,00,30,8.80
2012,06,09,00,31,8.80
2012,06,09,00,32,8.80
2012,06,09,00,33,8.80
2012,06,09,00,34,8.80
2012,06,09,00,35,8.80
2012,06,09,00,36,8.70
2012,06,09,00,37,8.70
2012,06,09,00,38,8.70
2012,06,09,00,39,8.70
2012,06,09,00,40,8.70
2012,06,09,00,41,8.70
2012,06,09,00,42,8.70
2012,06,09,00,43,8.60
2012,06,09,00,44,8.60
2012,06,09,00,45,8.60
2012,06,09,00,46,8.60
2012,06,09,00,47,8.60
2012,06,09,00,48,8.60
2012,06,09,00,49,8.60
2012,06,09,00,50,8.60
2012,06,09,00,51,8.60
2012,06,09,00,52,8.50
2012,06,09,00,53,8.50
2012,06,09,00,54,8.50
2012,06,09,00,55,8.50
2012,06,09,00,56,8.50
2012,06,09,00,57,8.50
2012,06,09,00,58,8.50
2012,06,09,00,59,8.50
2012,06,09,01,00,8.50
2012,06,09,01,01,8.50
2012,06,09,01,02,8.50
2012,06,09,01,03,8.50
2012,06,09,01,04,8.50
2012,06,09,01,05,8.50
2012,06,09,01,06,8.50
2012,06,09,01,07,8.50
2012,06,09,01,08,8.50
2012,06,09,01,09,8.50
2012,06,09,01,10,8.50
2012,06,09,01,11,8.50
2012,06,09,01,12,8.50
2012,06,09,01,13,8.50
2012,06,09,01,14,8.40
2012,06,09,01,15,8.50
2012,06,09,01,16,8.50
2012,06,09,01,17,8.40
2012,06,09,01,18,8.40
2012,06,09,01,19,8.40
2012,06,09,01,20,8.40
2012,06,09,01,21,8.40
2012,06,09,01,22,8.40
2012,06,09,01,23,8.40
2012,06,09,01,24,8.40
2012,06,09,01,25,8.40
2012,06,09,01,26,8.40
2012,06,09,01,27,8.40
2012,06,09,01,28,8.40
2012,06,09,01,29,8.40
2012,06,09,01,30,8.40
2012,06,09,01,31,8.40
2012,06,09,01,32,8.30
2012,06,09,01,33,8.30
2012,06,09,01,34,8.30
2012,06,09,01,35,8.30
2012,06,09,01,36,8.30
2012,06,09,01,37,8.30
2012,06,09,01,38,8.30
2012,06,09,01,39,8.30
2012,06,09,01,40,8.30
2012,06,09,01,41,8.30
2012,06,09,01,42,8.30
2012,06,09,01,43,8.30
2012,06,09,01,44,8.30
2012,06,09,01,45,8.30
2012,06,09,01,46,8.30
2012,06,09,01,47,8.30
2012,06,09,01,48,8.30
2012,06,09,01,49,8.30
2012,06,09,01,50,8.30
2012,06,09,01,51,8.30
2012,06,09,01,52,8.30
2012,06,09,01,53,8.30
2012,06,09,01,54,8.30
2012,06,09,01,55,8.30
2012,06,09,01,56,8.30
2012,06,09,01,57,8.20
2012,06,09,01,58,8.20
2012,06,09,01,59,8.20
2012,06,09,02,00,8.30
2012,06,09,02,01,8.30
2012,06,09,02,02,8.30
2012,06,09,02,03,8.30
2012,06,09,02,04,8.30
2012,06,09,02,05,8.30
2012,06,09,02,06,8.30
2012,06,09,02,07,8.30
2012,06,09,02,08,8.20
2012,06,09,02,09,8.20
2012,06,09,02,10,8.20
2012,06,09,02,11,8.20
2012,06,09,02,12,8.20
2012,06,09,02,13,8.20
2012,06,09,02,14,8.20
2012,06,09,02,15,8.20
2012,06,09,02,16,8.20
2012,06,09,02,17,8.20
2012,06,09,02,18,8.30
2012,06,09,02,19,8.30
2012,06,09,02,20,8.30
2012,06,09,02,21,8.30
2012,06,09,02,22,8.30
2012,06,09,02,23,8.30
2012,06,09,02,24,8.30
2012,06,09,02,25,8.30
2012,06,09,02,26,8.30
2012,06,09,02,27,8.40
2012,06,09,02,28,8.40
2012,06,09,02,29,8.40
2012,06,09,02,30,8.40
2012,06,09,02,31,8.40
2012,06,09,02,32,8.40
2012,06,09,02,33,8.50
2012,06,09,02,34,8.50
2012,06,09,02,35,8.50
2012,06,09,02,36,8.50
2012,06,09,02,37,8.50
2012,06,09,02,38,8.50
2012,06,09,02,39,8.50
2012,06,09,02,40,8.60
2012,06,09,02,41,8.60
2012,06,09,02,42,8.60
2012,06,09,02,43,8.60
2012,06,09,02,44,8.60
2012,06,09,02,45,8.70
2012,06,09,02,46,8.70
2012,06,09,02,47,8.70
2012,06,09,02,48,8.70
2012,06,09,02,49,8.70
2012,06,09,02,50,8.70
2012,06,09,02,51,8.70
2012,06,09,02,52,8.70
2012,06,09,02,53,8.70
2012,06,09,02,54,8.70
2012,06,09,02,55,8.70
2012,06,09,02,56,8.70
2012,06,09,02,57,8.70
2012,06,09,02,58,8.70
2012,06,09,02,59,8.70
2012,06,09,03,00,8.70
2012,06,09,03,01,8.80
2012,06,09,03,02,8.80
2012,06,09,03,03,8.80
2012,06,09,03,04,8.80
2012,06,09,03,05,8.80
2012,06,09,03,06,8.80
2012,06,09,03,07,8.80
2012,06,09,03,08,8.80
2012,06,09,03,09,8.80
2012,06,09,03,10,8.80
2012,06,09,03,11,8.80
2012,06,09,03,12,8.80
2012,06,09,03,13,8.90
2012,06,09,03,14,8.90
2012,06,09,03,15,8.90
2012,06,09,03,16,8.90
2012,06,09,03,17,8.90
2012,06,09,03,18,8.90
2012,06,09,03,19,9.00
2012,06,09,03,20,9.00
2012,06,09,03,21,9.00
2012,06,09,03,22,9.00
2012,06,09,03,23,9.00
2012,06,09,03,24,9.00
2012,06,09,03,25,9.00
2012,06,09,03,26,9.00
2012,06,09,03,27,9.00
2012,06,09,03,28,9.00
2012,06,09,03,29,9.00
2012,06,09,03,30,9.00
2012,06,09,03,31,9.00
2012,06,09,03,32,9.00
2012,06,09,03,33,9.00
2012,06,09,03,34,9.00
2012,06,09,03,35,8.90
2012,06,09,03,36,8.90
2012,06,09,03,37,8.90
2012,06,09,03,38,8.90
2012,06,09,03,39,8.90
2012,06,09,03,40,8.90
2012,06,09,03,41,8.90
2012,06,09,03,42,8.90
2012,06,09,03,43,8.90
2012,06,09,03,44,8.90
2012,06,09,03,45,8.90
2012,06,09,03,46,8.80
2012,06,09,03,47,8.80
2012,06,09,03,48,8.80
2012,06,09,03,49,8.80
2012,06,09,03,50,8.80
2012,06,09,03,51,8.80
2012,06,09,03,52,8.80
2012,06,09,03,53,8.80
2012,06,09,03,54,8.80
2012,06,09,03,55,8.80
2012,06,09,03,56,8.80
2012,06,09,03,57,8.80
2012,06,09,03,58,8.80
2012,06,09,03,59,8.80
2012,06,09,04,00,8.80
2012,06,09,04,01,8.80
2012,06,09,04,02,8.80
2012,06,09,04,03,8.80
2012,06,09,04,04,8.80
2012,06,09,04,05,8.80
2012,06,09,04,06,8.80
2012,06,09,04,07,8.80
2012,06,09,04,08,8.80
2012,06,09,04,09,8.80
2012,06,09,04,10,8.80
2012,06,09,04,11,8.80
2012,06,09,04,12,8.90
2012,06,09,04,13,8.90
2012,06,09,04,14,8.90
2012,06,09,04,15,8.90
2012,06,09,04,16,8.90
2012,06,09,04,17,8.90
2012,06,09,04,18,8.90
2012,06,09,04,19,8.90
2012,06,09,04,20,9.00
2012,06,09,04,21,9.00
2012,06,09,04,22,9.00
2012,06,09,04,23,9.00
2012,06,09,04,24,9.00
2012,06,09,04,25,9.00
2012,06,09,04,26,9.10
2012,06,09,04,27,9.10
2012,06,09,04,28,9.10
2012,06,09,04,29,9.10
2012,06,09,04,30,9.10
2012,06,09,04,31,9.10
2012,06,09,04,32,9.10
2012,06,09,04,33,9.20
2012,06,09,04,34,9.20
2012,06,09,04,35,9.20
2012,06,09,04,36,9.20
2012,06,09,04,37,9.20
2012,06,09,04,38,9.20
2012,06,09,04,39,9.20
2012,06,09,04,40,9.20
2012,06,09,04,41,9.20
2012,06,09,04,42,9.20
2012,06,09,04,43,9.20
2012,06,09,04,44,9.20
2012,06,09,04,45,9.20
2012,06,09,04,46,9.20
2012,06,09,04,47,9.20
2012,06,09,04,48,9.20
2012,06,09,04,49,9.20
2012,06,09,04,50,9.30
2012,06,09,04,51,9.30
2012,06,09,04,52,9.30
2012,06,09,04,53,9.30
2012,06,09,04,54,9.30
2012,06,09,04,55,9.30
2012,06,09,04,56,9.30
2012,06,09,04,57,9.30
2012,06,09,04,58,9.30
2012,06,09,04,59,9.30
2012,06,09,05,00,9.30
2012,06,09,05,01,9.30
2012,06,09,05,02,9.30
2012,06,09,05,03,9.30
2012,06,09,05,04,9.30
2012,06,09,05,05,9.30
2012,06,09,05,06,9.30
2012,06,09,05,07,9.30
2012,06,09,05,08,9.30
2012,06,09,05,09,9.30
2012,06,09,05,10,9.30
2012,06,09,05,11,9.30
2012,06,09,05,12,9.20
2012,06,09,05,13,9.20
2012,06,09,05,14,9.20
2012,06,09,05,15,9.20
2012,06,09,05,16,9.20
2012,06,09,05,17,9.20
2012,06,09,05,18,9.20
2012,06,09,05,19,9.20
2012,06,09,05,20,9.20
2012,06,09,05,21,9.20
2012,06,09,05,22,9.20
2012,06,09,05,23,9.20
2012,06,09,05,24,9.20
2012,06,09,05,25,9.20
2012,06,09,05,26,9.20
2012,06,09,05,27,9.20
2012,06,09,05,28,9.20
2012,06,09,05,29,9.20
2012,06,09,05,30,9.20
2012,06,09,05,31,9.20
2012,06,09,05,32,9.20
2012,06,09,05,33,9.20
2012,06,09,05,34,9.10
2012,06,09,05,35,9.10
2012,06,09,05,36,9.10
2012,06,09,05,37,9.10
2012,06,09,05,38,9.10
2012,06,09,05,39,9.10
2012,06,09,05,40,9.10
2012,06,09,05,41,9.10
2012,06,09,05,42,9.10
2012,06,09,05,43,9.10
2012,06,09,05,44,9.10
2012,06,09,05,45,9.10
2012,06,09,05,46,9.10
2012,06,09,05,47,9.10
2012,06,09,05,48,9.10
2012,06,09,05,49,9.10
2012,06,09,05,50,9.20
2012,06,09,05,51,9.20
2012,06,09,05,52,9.20
2012,06,09,05,53,9.20
2012,06,09,05,54,9.20
2012,06,09,05,55,9.20
2012,06,09,05,56,9.20
2012,06,09,05,57,9.30
2012,06,09,05,58,9.30
2012,06,09,05,59,9.30
2012,06,09,06,00,9.30
2012,06,09,06,01,9.30
2012,06,09,06,02,9.40
2012,06,09,06,03,9.40
2012,06,09,06,04,9.40
2012,06,09,06,05,9.40
2012,06,09,06,06,9.40
2012,06,09,06,07,9.40
2012,06,09,06,08,9.40
2012,06,09,06,09,9.40
2012,06,09,06,10,9.40
2012,06,09,06,11,9.40
2012,06,09,06,12,9.40
2012,06,09,06,13,9.40
2012,06,09,06,14,9.40
2012,06,09,06,15,9.40
2012,06,09,06,16,9.40
2012,06,09,06,17,9.40
2012,06,09,06,18,9.40
2012,06,09,06,19,9.40
2012,06,09,06,20,9.40
2012,06,09,06,21,9.40
2012,06,09,06,22,9.40
2012,06,09,06,23,9.40
2012,06,09,06,24,9.40
2012,06,09,06,25,9.40
2012,06,09,06,26,9.40
2012,06,09,06,27,9.50
2012,06,09,06,28,9.50
2012,06,09,06,29,9.50
2012,06,09,06,30,9.50
2012,06,09,06,31,9.50
2012,06,09,06,32,9.60
2012,06,09,06,33,9.60
2012,06,09,06,34,9.60
2012,06,09,06,35,9.60
2012,06,09,06,36,9.60
2012,06,09,06,37,9.60
2012,06,09,06,38,9.60
2012,06,09,06,39,9.60
2012,06,09,06,40,9.60
2012,06,09,06,41,9.60
2012,06,09,06,42,9.60
2012,06,09,06,43,9.70
2012,06,09,06,44,9.70
2012,06,09,06,45,9.70
2012,06,09,06,46,9.70
2012,06,09,06,47,9.70
2012,06,09,06,48,9.80
2012,06,09,06,49,9.80
2012,06,09,06,50,9.80
2012,06,09,06,51,9.90
2012,06,09,06,52,9.90
2012,06,09,06,53,9.90
2012,06,09,06,54,9.90
2012,06,09,06,55,9.90
2012,06,09,06,56,9.90
2012,06,09,06,57,9.90
2012,06,09,06,58,10.00
2012,06,09,06,59,10.10
2012,06,09,07,00,10.10
2012,06,09,07,01,10.10
2012,06,09,07,02,10.10
2012,06,09,07,03,10.10
2012,06,09,07,04,10.10
2012,06,09,07,05,10.20
2012,06,09,07,06,10.20
2012,06,09,07,07,10.20
2012,06,09,07,08,10.20
2012,06,09,07,09,10.30
2012,06,09,07,10,10.30
2012,06,09,07,11,10.40
2012,06,09,07,12,10.40
2012,06,09,07,13,10.40
2012,06,09,07,14,10.40
2012,06,09,07,15,10.40
2012,06,09,07,16,10.40
2012,06,09,07,17,10.40
2012,06,09,07,18,10.40
2012,06,09,07,19,10.50
2012,06,09,07,20,10.60
2012,06,09,07,21,10.60
2012,06,09,07,22,10.60
2012,06,09,07,23,10.60
2012,06,09,07,24,10.60
2012,06,09,07,25,10.60
2012,06,09,07,26,10.60
2012,06,09,07,27,10.60
2012,06,09,07,28,10.60
2012,06,09,07,29,10.60
2012,06,09,07,30,10.60
2012,06,09,07,31,10.60
2012,06,09,07,32,10.60
2012,06,09,07,33,10.70
2012,06,09,07,34,10.70
2012,06,09,07,35,10.80
2012,06,09,07,36,10.80
2012,06,09,07,37,10.80
2012,06,09,07,38,10.80
2012,06,09,07,39,10.80
2012,06,09,07,40,10.90
2012,06,09,07,41,10.90
2012,06,09,07,42,10.90
2012,06,09,07,43,10.90
2012,06,09,07,44,10.90
2012,06,09,07,45,11.10
2012,06,09,07,46,11.10
2012,06,09,07,47,11.10
2012,06,09,07,48,11.10
2012,06,09,07,49,11.10
2012,06,09,07,50,11.20
2012,06,09,07,51,11.20
2012,06,09,07,52,11.20
2012,06,09,07,53,11.20
2012,06,09,07,54,11.20
2012,06,09,07,55,11.20
2012,06,09,07,56,11.30
2012,06,09,07,57,11.20
2012,06,09,07,58,11.20
2012,06,09,07,59,11.30
2012,06,09,08,00,11.30
2012,06,09,08,01,11.30
2012,06,09,08,02,11.30
2012,06,09,08,03,11.30
2012,06,09,08,04,11.30
2012,06,09,08,05,11.30
2012,06,09,08,06,11.30
2012,06,09,08,07,11.40
2012,06,09,08,08,11.40
2012,06,09,08,09,11.40
2012,06,09,08,10,11.40
2012,06,09,08,11,11.40
2012,06,09,08,12,11.40
2012,06,09,08,13,11.40
2012,06,09,08,14,11.50
2012,06,09,08,15,11.60
2012,06,09,08,16,11.60
2012,06,09,08,17,11.60
2012,06,09,08,18,11.60
2012,06,09,08,19,11.60
2012,06,09,08,20,11.70
2012,06,09,08,21,11.70
2012,06,09,08,22,11.80
2012,06,09,08,23,11.80
2012,06,09,08,24,11.80
2012,06,09,08,25,11.80
2012,06,09,08,26,11.80
2012,06,09,08,27,11.70
2012,06,09,08,28,11.70
2012,06,09,08,29,11.70
2012,06,09,08,30,11.80
2012,06,09,08,31,11.80
2012,06,09,08,32,11.80
2012,06,09,08,33,11.80
2012,06,09,08,34,11.80
2012,06,09,08,35,11.90
2012,06,09,08,36,11.90
2012,06,09,08,37,11.90
2012,06,09,08,38,11.90
2012,06,09,08,39,12.00
2012,06,09,08,40,12.10
2012,06,09,08,41,12.10
2012,06,09,08,42,12.10
2012,06,09,08,43,12.10
2012,06,09,08,44,12.10
2012,06,09,08,45,12.10
2012,06,09,08,46,12.10
2012,06,09,08,47,12.10
2012,06,09,08,48,12.10
2012,06,09,08,49,12.10
2012,06,09,08,50,12.10
2012,06,09,08,51,12.10
2012,06,09,08,52,12.20
2012,06,09,08,53,12.20
2012,06,09,08,54,12.30
2012,06,09,08,55,12.30
2012,06,09,08,56,12.30
2012,06,09,08,57,12.30
2012,06,09,08,58,12.30
2012,06,09,08,59,12.30
2012,06,09,09,00,12.40
2012,06,09,09,01,12.50
2012,06,09,09,02,12.50
2012,06,09,09,03,12.60
2012,06,09,09,04,12.60
2012,06,09,09,05,12.70
2012,06,09,09,06,12.80
2012,06,09,09,07,12.80
2012,06,09,09,08,12.70
2012,06,09,09,09,12.80
2012,06,09,09,10,12.80
2012,06,09,09,11,12.80
2012,06,09,09,12,12.90
2012,06,09,09,13,12.90
2012,06,09,09,14,12.80
2012,06,09,09,15,12.80
2012,06,09,09,16,12.70
2012,06,09,09,17,12.60
2012,06,09,09,18,12.60
2012,06,09,09,19,12.50
2012,06,09,09,20,12.50
2012,06,09,09,21,12.50
2012,06,09,09,22,12.60
2012,06,09,09,23,12.80
2012,06,09,09,24,12.80
2012,06,09,09,25,12.80
2012,06,09,09,26,12.80
2012,06,09,09,27,12.80
2012,06,09,09,28,12.70
2012,06,09,09,29,12.70
2012,06,09,09,30,12.70
2012,06,09,09,31,12.70
2012,06,09,09,32,12.70
2012,06,09,09,33,12.70
2012,06,09,09,34,12.70
2012,06,09,09,35,12.70
2012,06,09,09,36,12.80
2012,06,09,09,37,12.80
2012,06,09,09,38,12.80
2012,06,09,09,39,12.80
2012,06,09,09,40,12.80
2012,06,09,09,41,12.80
2012,06,09,09,42,12.80
2012,06,09,09,43,12.80
2012,06,09,09,44,12.80
2012,06,09,09,45,12.80
2012,06,09,09,46,12.70
2012,06,09,09,47,12.70
2012,06,09,09,48,12.60
2012,06,09,09,49,12.60
2012,06,09,09,50,12.60
2012,06,09,09,51,12.60
2012,06,09,09,52,12.60
2012,06,09,09,53,12.70
2012,06,09,09,54,12.70
2012,06,09,09,55,12.80
2012,06,09,09,56,12.80
2012,06,09,09,57,12.80
2012,06,09,09,58,12.80
2012,06,09,09,59,12.80
2012,06,09,10,00,12.80
2012,06,09,10,01,12.80
2012,06,09,10,02,12.90
2012,06,09,10,03,13.00
2012,06,09,10,04,13.00
2012,06,09,10,05,13.00
2012,06,09,10,06,13.00
2012,06,09,10,07,13.00
2012,06,09,10,08,12.90
2012,06,09,10,09,12.80
2012,06,09,10,10,12.80
2012,06,09,10,11,12.80
2012,06,09,10,12,12.80
2012,06,09,10,13,12.80
2012,06,09,10,14,12.80
2012,06,09,10,15,12.80
2012,06,09,10,16,12.90
2012,06,09,10,17,12.90
2012,06,09,10,18,13.00
2012,06,09,10,19,12.90
2012,06,09,10,20,12.90
2012,06,09,10,21,12.90
2012,06,09,10,22,12.80
2012,06,09,10,23,12.90
2012,06,09,10,24,12.90
2012,06,09,10,25,12.90
2012,06,09,10,26,12.90
2012,06,09,10,27,12.90
2012,06,09,10,28,12.90
2012,06,09,10,29,12.90
2012,06,09,10,30,12.80
2012,06,09,10,31,12.80
2012,06,09,10,32,12.80
2012,06,09,10,33,12.80
2012,06,09,10,34,12.90
2012,06,09,10,35,13.00
2012,06,09,10,36,13.10
2012,06,09,10,37,13.10
2012,06,09,10,38,13.00
2012,06,09,10,39,12.90
2012,06,09,10,40,12.90
2012,06,09,10,41,12.90
2012,06,09,10,42,12.80
2012,06,09,10,43,12.80
2012,06,09,10,44,12.80
2012,06,09,10,45,12.80
2012,06,09,10,46,12.80
2012,06,09,10,47,12.80
2012,06,09,10,48,13.00
2012,06,09,10,49,13.00
2012,06,09,10,50,13.00
2012,06,09,10,51,12.90
2012,06,09,10,52,13.00
2012,06,09,10,53,13.00
2012,06,09,10,54,13.00
2012,06,09,10,55,13.00
2012,06,09,10,56,12.90
2012,06,09,10,57,12.90
2012,06,09,10,58,12.90
2012,06,09,10,59,12.90
2012,06,09,11,00,12.90
2012,06,09,11,01,12.90
2012,06,09,11,02,13.00
2012,06,09,11,03,13.00
2012,06,09,11,04,12.80
2012,06,09,11,05,12.80
2012,06,09,11,06,12.80
2012,06,09,11,07,12.80
2012,06,09,11,08,12.90
2012,06,09,11,09,13.00
2012,06,09,11,10,13.00
2012,06,09,11,11,13.00
2012,06,09,11,12,12.90
2012,06,09,11,13,13.00
2012,06,09,11,14,13.00
2012,06,09,11,15,13.00
2012,06,09,11,16,13.00
2012,06,09,11,17,13.10
2012,06,09,11,18,13.10
2012,06,09,11,19,13.10
2012,06,09,11,20,13.30
2012,06,09,11,21,13.30
2012,06,09,11,22,13.30
2012,06,09,11,23,13.40
2012,06,09,11,24,13.50
2012,06,09,11,25,13.50
2012,06,09,11,26,13.60
2012,06,09,11,27,13.60
2012,06,09,11,28,13.70
2012,06,09,11,29,13.60
2012,06,09,11,30,13.60
2012,06,09,11,31,13.60
2012,06,09,11,32,13.60
2012,06,09,11,33,13.70
2012,06,09,11,34,13.60
2012,06,09,11,35,13.50
2012,06,09,11,36,13.50
2012,06,09,11,37,13.50
2012,06,09,11,38,13.60
2012,06,09,11,39,13.60
2012,06,09,11,40,13.70
2012,06,09,11,41,13.60
2012,06,09,11,42,13.60
2012,06,09,11,43,13.70
2012,06,09,11,44,13.70
2012,06,09,11,45,13.70
2012,06,09,11,46,13.80
2012,06,09,11,47,13.80
2012,06,09,11,48,13.70
2012,06,09,11,49,13.70
2012,06,09,11,50,13.70
2012,06,09,11,51,13.80
2012,06,09,11,52,13.80
2012,06,09,11,53,13.90
2012,06,09,11,54,13.90
2012,06,09,11,55,13.80
2012,06,09,11,56,13.80
2012,06,09,11,57,13.70
2012,06,09,11,58,13.80
2012,06,09,11,59,13.90
2012,06,09,12,00,13.90
2012,06,09,12,01,13.90
2012,06,09,12,02,13.90
2012,06,09,12,03,14.00
2012,06,09,12,04,14.00
2012,06,09,12,05,13.90
2012,06,09,12,06,13.90
2012,06,09,12,07,13.90
2012,06,09,12,08,13.80
2012,06,09,12,09,13.80
2012,06,09,12,10,13.80
2012,06,09,12,11,13.80
2012,06,09,12,12,13.90
2012,06,09,12,13,13.90
2012,06,09,12,14,13.80
2012,06,09,12,15,13.80
2012,06,09,12,16,13.90
2012,06,09,12,17,14.00
2012,06,09,12,18,14.00
2012,06,09,12,19,13.90
2012,06,09,12,20,13.90
2012,06,09,12,21,13.90
2012,06,09,12,22,14.00
2012,06,09,12,23,14.10
2012,06,09,12,24,14.20
2012,06,09,12,25,14.20
2012,06,09,12,26,14.30
2012,06,09,12,27,14.40
2012,06,09,12,28,14.40
2012,06,09,12,29,14.30
2012,06,09,12,30,14.10
2012,06,09,12,31,14.10
2012,06,09,12,32,14.10
2012,06,09,12,33,14.00
2012,06,09,12,34,14.00
2012,06,09,12,35,14.10
2012,06,09,12,36,14.20
2012,06,09,12,37,14.30
2012,06,09,12,38,14.30
2012,06,09,12,39,14.30
2012,06,09,12,40,14.20
2012,06,09,12,41,14.20
2012,06,09,12,42,14.20
2012,06,09,12,43,14.20
2012,06,09,12,44,14.20
2012,06,09,12,45,14.20
2012,06,09,12,46,14.20
2012,06,09,12,47,14.20
2012,06,09,12,48,14.20
2012,06,09,12,49,14.40
2012,06,09,12,50,14.60
2012,06,09,12,51,14.70
2012,06,09,12,52,14.70
2012,06,09,12,53,14.50
2012,06,09,12,54,14.40
2012,06,09,12,55,14.30
2012,06,09,12,56,14.30
2012,06,09,12,57,14.20
2012,06,09,12,58,14.10
2012,06,09,12,59,14.00
2012,06,09,13,00,14.00
2012,06,09,13,01,14.00
2012,06,09,13,02,14.20
2012,06,09,13,03,14.20
2012,06,09,13,04,14.30
2012,06,09,13,05,14.20
2012,06,09,13,06,14.20
2012,06,09,13,07,14.10
2012,06,09,13,08,14.00
2012,06,09,13,09,14.00
2012,06,09,13,10,14.10
2012,06,09,13,11,14.20
2012,06,09,13,12,14.10
2012,06,09,13,13,14.00
2012,06,09,13,14,14.00
2012,06,09,13,15,14.00
2012,06,09,13,16,14.10
2012,06,09,13,17,14.10
2012,06,09,13,18,14.00
2012,06,09,13,19,14.00
2012,06,09,13,20,14.00
2012,06,09,13,21,14.10
2012,06,09,13,22,14.10
2012,06,09,13,23,14.10
2012,06,09,13,24,14.20
2012,06,09,13,25,14.20
2012,06,09,13,26,14.20
2012,06,09,13,27,14.20
2012,06,09,13,28,14.30
2012,06,09,13,29,14.30
2012,06,09,13,30,14.30
2012,06,09,13,31,14.30
2012,06,09,13,32,14.30
2012,06,09,13,33,14.30
2012,06,09,13,34,14.30
2012,06,09,13,35,14.30
2012,06,09,13,36,14.40
2012,06,09,13,37,14.40
2012,06,09,13,38,14.50
2012,06,09,13,39,14.60
2012,06,09,13,40,14.70
2012,06,09,13,41,14.70
2012,06,09,13,42,14.60
2012,06,09,13,43,14.60
2012,06,09,13,44,14.60
2012,06,09,13,45,14.50
2012,06,09,13,46,14.50
2012,06,09,13,47,14.50
2012,06,09,13,48,14.60
2012,06,09,13,49,14.60
2012,06,09,13,50,14.50
2012,06,09,13,51,14.50
2012,06,09,13,52,14.60
2012,06,09,13,53,14.60
2012,06,09,13,54,14.70
2012,06,09,13,55,14.70
2012,06,09,13,56,14.60
2012,06,09,13,57,14.60
2012,06,09,13,58,14.70
2012,06,09,13,59,14.70
2012,06,09,14,00,14.70
2012,06,09,14,01,14.60
2012,06,09,14,02,14.60
2012,06,09,14,03,14.50
2012,06,09,14,04,14.50
2012,06,09,14,05,14.50
2012,06,09,14,06,14.50
2012,06,09,14,07,14.50
2012,06,09,14,08,14.50
2012,06,09,14,09,14.60
2012,06,09,14,10,14.80
2012,06,09,14,11,14.80
2012,06,09,14,12,14.80
2012,06,09,14,13,14.70
2012,06,09,14,14,14.60
2012,06,09,14,15,14.60
2012,06,09,14,16,14.70
2012,06,09,14,17,14.80
2012,06,09,14,18,14.90
2012,06,09,14,19,14.80
2012,06,09,14,20,14.80
2012,06,09,14,21,14.80
2012,06,09,14,22,14.70
2012,06,09,14,23,14.60
2012,06,09,14,24,14.50
2012,06,09,14,25,14.40
2012,06,09,14,26,14.40
2012,06,09,14,27,14.40
2012,06,09,14,28,14.50
2012,06,09,14,29,14.50
2012,06,09,14,30,14.50
2012,06,09,14,31,14.50
2012,06,09,14,32,14.40
2012,06,09,14,33,14.30
2012,06,09,14,34,14.20
2012,06,09,14,35,14.30
2012,06,09,14,36,14.40
2012,06,09,14,37,14.40
2012,06,09,14,38,14.40
2012,06,09,14,39,14.30
2012,06,09,14,40,14.30
2012,06,09,14,41,14.40
2012,06,09,14,42,14.50
2012,06,09,14,43,14.60
2012,06,09,14,44,14.60
2012,06,09,14,45,14.70
2012,06,09,14,46,14.70
2012,06,09,14,47,14.70
2012,06,09,14,48,14.60
2012,06,09,14,49,14.70
2012,06,09,14,50,14.60
2012,06,09,14,51,14.60
2012,06,09,14,52,14.60
2012,06,09,14,53,14.60
2012,06,09,14,54,14.70
2012,06,09,14,55,14.80
2012,06,09,14,56,14.70
2012,06,09,14,57,14.50
2012,06,09,14,58,14.50
2012,06,09,14,59,14.40
2012,06,09,15,00,14.30
2012,06,09,15,01,14.30
2012,06,09,15,02,14.40
2012,06,09,15,03,14.40
2012,06,09,15,04,14.40
2012,06,09,15,05,14.40
2012,06,09,15,06,14.20
2012,06,09,15,07,14.20
2012,06,09,15,08,14.20
2012,06,09,15,09,14.40
2012,06,09,15,10,14.40
2012,06,09,15,11,14.50
2012,06,09,15,12,14.50
2012,06,09,15,13,14.40
2012,06,09,15,14,14.30
2012,06,09,15,15,14.20
2012,06,09,15,16,14.10
2012,06,09,15,17,13.90
2012,06,09,15,18,13.90
2012,06,09,15,19,13.90
2012,06,09,15,20,14.00
2012,06,09,15,21,14.10
2012,06,09,15,22,14.10
2012,06,09,15,23,14.10
2012,06,09,15,24,14.00
2012,06,09,15,25,14.00
2012,06,09,15,26,14.00
2012,06,09,15,27,14.00
2012,06,09,15,28,14.10
2012,06,09,15,29,14.20
2012,06,09,15,30,14.20
2012,06,09,15,31,14.20
2012,06,09,15,32,14.20
2012,06,09,15,33,14.20
2012,06,09,15,34,14.10
2012,06,09,15,35,14.00
2012,06,09,15,36,13.90
2012,06,09,15,37,13.90
2012,06,09,15,38,13.90
2012,06,09,15,39,13.90
2012,06,09,15,40,13.90
2012,06,09,15,41,13.90
2012,06,09,15,42,13.90
2012,06,09,15,43,13.90
2012,06,09,15,44,13.90
2012,06,09,15,45,13.90
2012,06,09,15,46,13.90
2012,06,09,15,47,13.90
2012,06,09,15,48,13.90
2012,06,09,15,49,14.00
2012,06,09,15,50,14.10
2012,06,09,15,51,14.10
2012,06,09,15,52,14.00
2012,06,09,15,53,14.00
2012,06,09,15,54,14.00
2012,06,09,15,55,13.90
2012,06,09,15,56,13.90
2012,06,09,15,57,13.80
2012,06,09,15,58,13.90
2012,06,09,15,59,13.90
2012,06,09,16,00,14.00
2012,06,09,16,01,14.00
2012,06,09,16,02,14.00
2012,06,09,16,03,14.00
2012,06,09,16,04,14.10
2012,06,09,16,05,14.00
2012,06,09,16,06,14.00
2012,06,09,16,07,14.00
2012,06,09,16,08,14.00
2012,06,09,16,09,13.90
2012,06,09,16,10,14.00
2012,06,09,16,11,14.10
2012,06,09,16,12,14.10
2012,06,09,16,13,14.10
2012,06,09,16,14,14.10
2012,06,09,16,15,14.10
2012,06,09,16,16,14.10
2012,06,09,16,17,14.20
2012,06,09,16,18,14.20
2012,06,09,16,19,14.20
2012,06,09,16,20,14.20
2012,06,09,16,21,14.20
2012,06,09,16,22,14.20
2012,06,09,16,23,14.10
2012,06,09,16,24,14.10
2012,06,09,16,25,14.00
2012,06,09,16,26,13.90
2012,06,09,16,27,13.90
2012,06,09,16,28,14.00
2012,06,09,16,29,14.00
2012,06,09,16,30,13.90
2012,06,09,16,31,13.90
2012,06,09,16,32,13.90
2012,06,09,16,33,13.80
2012,06,09,16,34,13.80
2012,06,09,16,35,13.80
2012,06,09,16,36,13.80
2012,06,09,16,37,13.90
2012,06,09,16,38,14.00
2012,06,09,16,39,13.90
2012,06,09,16,40,13.90
2012,06,09,16,41,13.90
2012,06,09,16,42,13.80
2012,06,09,16,43,13.80
2012,06,09,16,44,13.70
2012,06,09,16,45,13.70
2012,06,09,16,46,13.70
2012,06,09,16,47,13.60
2012,06,09,16,48,13.70
2012,06,09,16,49,13.70
2012,06,09,16,50,13.70
2012,06,09,16,51,13.70
2012,06,09,16,52,13.80
2012,06,09,16,53,13.80
2012,06,09,16,54,13.90
2012,06,09,16,55,14.00
2012,06,09,16,56,14.00
2012,06,09,16,57,14.00
2012,06,09,16,58,13.90
2012,06,09,16,59,13.90
2012,06,09,17,00,13.90
2012,06,09,17,01,14.00
2012,06,09,17,02,14.00
2012,06,09,17,03,14.10
2012,06,09,17,04,14.00
2012,06,09,17,05,13.90
2012,06,09,17,06,13.80
2012,06,09,17,07,13.70
2012,06,09,17,08,13.70
2012,06,09,17,09,13.70
2012,06,09,17,10,13.70
2012,06,09,17,11,13.70
2012,06,09,17,12,13.70
2012,06,09,17,13,13.70
2012,06,09,17,14,13.60
2012,06,09,17,15,13.60
2012,06,09,17,16,13.60
2012,06,09,17,17,13.50
2012,06,09,17,18,13.50
2012,06,09,17,19,13.40
2012,06,09,17,20,13.40
2012,06,09,17,21,13.30
2012,06,09,17,22,13.30
2012,06,09,17,23,13.30
2012,06,09,17,24,13.30
2012,06,09,17,25,13.30
2012,06,09,17,26,13.30
2012,06,09,17,27,13.30
2012,06,09,17,28,13.20
2012,06,09,17,29,13.20
2012,06,09,17,30,13.30
2012,06,09,17,31,13.30
2012,06,09,17,32,13.20
2012,06,09,17,33,13.20
2012,06,09,17,34,13.20
2012,06,09,17,35,13.20
2012,06,09,17,36,13.20
2012,06,09,17,37,13.20